Regional Weather Roundup
Issued by NWS

Home | Current Version | Previous Version | Graphics & Text | Print | Product List | Glossary On
Versions: 1 2 3 4 5 6 7 8 9 10 11 12 13 14 15 16 17 18 19 20 21 22 23 24 25 26 27 28 29 30 31 32 33 34 35 36 37 38 39 40 41 42 43 44 45 46 47 48 49 50
000
ASUS43 KDMX 300207
RWRIA

WEATHER ROUNDUP FOR IOWA
NATIONAL WEATHER SERVICE DES MOINES IA
900 PM CDT TUE JUL 29 2014

NOTE: "FAIR" INDICATES FEW OR NO CLOUDS BELOW 12,000 FEET WITH NO
SIGNIFICANT WEATHER AND/OR OBSTRUCTIONS TO VISIBILITY.

* - THESE STATIONS ARE NOT NWS STATIONS...THUS NOT UNDER NWS
QUALITY CONTROL.  THEY ALSO DO NOT REPORT WEATHER SUCH
AS PRECIPITATION OR FOG.

IAZ001>003-012>014-020>022-031>034-043>046-300300-
   NORTHWEST IOWA

CITY           SKY/WX    TMP DP  RH WIND       PRES   REMARKS
CARROLL *      CLEAR     61  57  88 W5        30.10S
CHEROKEE *     CLEAR     65  56  72 CALM      30.11S
DENISON *      CLEAR     66  57  72 CALM      30.09F
LE MARS *        N/A     64  61  88 CALM      30.12S
ORANGE CITY *  CLEAR     66  55  68 CALM      30.12S
SHELDON *      CLEAR     63  59  88 CALM      30.11S
SIOUX CITY     CLEAR     67  56  67 CALM      30.11S
SPENCER        CLEAR     64  59  83 NW5       30.10F
STORM LAKE *   CLEAR     64  55  72 NW5       30.12S
$$

IAZ055>058-069>071-079>083-090>094-300300-
   SOUTHWEST IOWA

CITY           SKY/WX    TMP DP  RH WIND       PRES   REMARKS
ATLANTIC *     PTCLDY    64  57  77 NW6       30.10S
AUDUBON *      CLEAR     66  59  77 CALM      30.12S
CLARINDA *     CLEAR     68  59  73 CALM      30.12R
COUNCIL BLFS *   N/A     70  57  64 CALM      30.11R
CRESTON *      MOCLDY    66  57  72 NW5       30.11R
HARLAN  *      CLEAR     63  59  88 NW5       30.14S
LAMONI         PTCLDY    68  56  65 CALM      30.09S
RED OAK *      MOCLDY    66  59  77 CALM      30.11S
SHENANDOAH *   MOCLDY    68  61  77 CALM      30.11S
$$

IAZ047>049-059>061-072>074-084-300300-
   CENTRAL IOWA

CITY           SKY/WX    TMP DP  RH WIND       PRES   REMARKS
AMES           CLEAR     65  58  78 W5        30.07F
ANKENY *       CLEAR     72  57  60 NW6       30.08R
CHARITON *     CLEAR     68  57  68 W5        30.08S
DES MOINES     PTCLDY    71  54  54 NW5       30.07S
GRINNELL*      CLEAR     66  59  77 CALM      30.08S
KNOXVILLE *    CLEAR     70  55  60 NW3       30.06S
MARSHALLTOWN   CLEAR     66  60  81 NW5       30.07S
PELLA *        CLEAR     67  58  72 CALM      30.08S
PERRY *          N/A     64  61  88 W6        30.09S
$$

IAZ004>006-015-016-023>025-035-036-300300-
   NORTH CENTRAL IOWA

CITY           SKY/WX    TMP DP  RH WIND       PRES   REMARKS
ALGONA *       CLEAR     68  59  73 NW5       30.09S
CLARION *      CLEAR     64  61  88 NW3       30.08S
ESTHERVILLE    CLEAR     63  58  83 W5        30.10  HAZE
FORT DODGE *   PTCLDY    66  57  72 CALM      30.09F
MASON CITY     CLEAR     64  56  75 W7        30.09S
FOREST CITY *  CLEAR     64  57  77 E3        30.08S
IOWA FALLS *     N/A     64  59  82 CALM      30.09S
$$

IAZ007>011-017>019-026>030-037>042-050>054-066-300300-
   NORTHEAST IOWA

CITY           SKY/WX    TMP DP  RH WIND       PRES   REMARKS
CEDAR RAPIDS   CLEAR     64  59  83 W6        30.05S
CHARLES CITY * CLEAR     64  57  77 W6        30.07S
CLINTON *      CLEAR     64  59  82 W6        30.06S
DECORAH *      CLEAR     68  55  64 W3        30.05R
DUBUQUE        PTCLDY    66  59  78 W6        30.04F
MONTICELLO *   CLEAR     64  61  88 CALM      30.04S
OELWEIN *      CLEAR     66  59  77 W6        30.06S
WATERLOO       CLEAR     68  57  68 NW5       30.05S
$$

IAZ064-065-067-068-078-300300-
   EAST CENTRAL IOWA

CITY           SKY/WX    TMP DP  RH WIND       PRES   REMARKS
DAVENPORT      CLEAR     64  59  83 W8        30.05S
IOWA CITY      CLEAR     67  60  78 W5        30.06S
MT. PLEASANT * CLEAR     67  58  72 CALM      30.06S
MUSCATINE *    CLEAR     68  59  73 CALM      30.05S
QUAD CITIES    CLEAR     67  58  72 SW5       30.04R
$$

IAZ062-063-075>077-085>089-095>099-300300-
   SOUTHEAST IOWA

CITY           SKY/WX    TMP DP  RH WIND       PRES   REMARKS
BURLINGTON     CLEAR     65  61  87 CALM      30.05F
FAIRFIELD *    CLEAR     64  61  88 CALM      30.06S
FORT MADISON * CLEAR     66  63  88 CALM      30.07S
KEOKUK *       CLEAR     68  63  83 CALM      30.05F
OSKALOOSA *      N/A     68  61  77 NW6       30.07S
CENTERVILLE *  CLEAR     63  59  88 W3        30.09S
OTTUMWA        CLEAR     67  57  70 NW5       30.06F
WASHINGTON *   CLEAR     66  61  82 W3        30.06S
$$

ABBREVIATIONS USED IN REMARKS
   TC - TEMPERATURES IN CELSIUS
  WCI - WIND CHILL INDEX
   HX - HEAT INDEX
  VSB - VISIBILITY
$$



USA.gov is the U.S. government's official web portal to all federal, state and local government web resources and services.